Погода в Новодугино

Россия / Смоленская область     55°37′56″N   34°17′30″E
темп.,
°C
ветер,
м/с
пор.,
м/с
влажн.,
%
обл.,
%
осадки,
мм/ч
давл.,
гПа
погр.,
м
18 сентября, сб
сб1800:00+2всв388799 0.0 1022157
03:00+2всв41080100 0.0 1023220
06:00+1всв4128267 0.0 1023269
09:00+5в61265100 0.0 1023751
12:00+9в81050100 0.0 10211149
15:00+11в81045100 0.0 10211351
18:00+9в71152100 0.0 1020956
21:00+8в71358100 0.0 1020909
19 сентября, вс
вс1900:00+7в71367100 0.0 1020946
03:00+6в71466100 0.0 1019830
06:00+5в81579100 0.6 1018812
09:00+4в81690100 3.6 1019799
12:00+5в91792100 4.8 1018765
15:00+5в91793100 10.2 1018838
18:00+4всв91793100 5.0 1018880
21:00+3всв91797100 10.6 1018872
20 сентября, пн
пн2000:00+4всв81594100 4.1 1017932
03:00+4всв81593100 7.0 1016857
06:00+3всв81597100 2.8 1016930
09:00+3всв81597100 4.2 1016777
12:00+3всв81597100 1.0 1017734
15:00+3всв71497100 2.2 1017787
18:00+3всв81497100 1.1 1016856
21:00+3св81497100 3.6 1016803
21 сентября, вт
вт2100:00+3св71497100 1.8 1015716
03:00+3св71396100 3.4 1014699
06:00+3св71397100 1.4 1013671
09:00+3св71298100 3.9 1013661
12:00+3св71197100 1.6 1013635
15:00+3ссв61197100 2.5 1013515
18:00+3ссв61098100 0.3 1013489
21:00+3с5998100 1.4 1014543
22 сентября, ср
ср2200:00+2с5898100 1.4 1014401
03:00+2ссз5898100 2.8 1013560
06:00+3с5898100 0.8 1013649
09:00+4с5998100 1.4 1013547
12:00+5с5997100 0.3 1013543
15:00+5с5796100 0.6 1013786
18:00+4ссз4798100 0.9 1013651
21:00+4ссз3598100 1.4 1012692